Back to catalog

USA 577

AliveMilitaryVLEO
NORAD 67489·PAYLOAD·🇺🇸 United States

Launched Jan 17, 2026 from Vandenberg Space Force Base

Loading…

Next Passes (next 24 hours)

TLE

StaleSource: Mike McCants

Epoch: Jul 26, 2026, 22:16 UTC

1 67489U 26011F   26207.92808461 0.00000000  00000-0  00000-0 0    02
2 67489  70.0210 137.2383 0002000 286.1340  73.8660 14.96713362    01

Track USA 577 in real time with AllMySat

Download on the App Store